Orbital Elements at Epoch 2459200.5 (2020-Dec-17.0) TDB
Reference: JPL 17 (heliocentric ecliptic J2000)
Element | Value | Uncertainty (1-sigma) | Units |
e | .1808022740251744 | 5.7493e-08 | |
a | 2.237588267933838 | 8.402e-09 | au |
q | 1.833027220759349 | 1.2915e-07 | au |
i | 4.812859665128896 | 6.5682e-06 | deg |
node | 329.1382852841854 | 4.6456e-05 | deg |
peri | 30.89385767921708 | 5.064e-05 | deg |
M | 82.70155033876679 | 1.7669e-05 | deg |
tp | 2458919.646499289131 (2020-Mar-11.14649929) | 5.9355e-05 | TDB |
period | 1222.555802663331 3.35 | 6.8859e-06 1.885e-08 | d yr |
n | .2944650863508578 | 1.6585e-09 | deg/d |
Q | 2.642149315108328 | 9.9211e-09 | au |
|
| | Orbit Determination Parameters
Additional Information
|